2016-09-08 00:01:48 r, 19.78m,0000000001Hz,0000444704c,0000000.965s, 025.4C,00002191
2016-09-08 00:11:48 r, 20.15m,0000000001Hz,0000622709c,0000001.351s, 025.4C,00002191
2016-09-08 00:21:48 r, 20.80m,0000000001Hz,0001135820c,0000002.465s, 025.1C,00002191
2016-09-08 00:31:48 r, 20.72m,0000000001Hz,0001053230c,0000002.286s, 025.1C,00002191
2016-09-08 00:41:48 r, 20.97m,0000000000Hz,0001310788c,0000002.845s, 024.8C,00002191
2016-09-08 00:51:50 r, 20.76m,0000000000Hz,0001089787c,0000002.365s, 024.8C,00002191
2016-09-08 01:01:49 r, 20.73m,0000000001Hz,0001058256c,0000002.297s, 024.4C,00002191
2016-09-08 01:11:48 r, 20.39m,0000000001Hz,0000776496c,0000001.685s, 024.4C,00002191
2016-09-08 01:21:49 r, 20.14m,0000000000Hz,0000620980c,0000001.348s, 024.4C,00002191
2016-09-08 01:31:48 r, 20.72m,0000000001Hz,0001054219c,0000002.288s, 024.4C,00002191
2016-09-08 01:41:48 r, 20.67m,0000000000Hz,0001004992c,0000002.181s, 024.4C,00002191
2016-09-08 01:51:49 r, 20.55m,0000000000Hz,0000898580c,0000001.950s, 024.1C,00002191
2016-09-08 02:01:49 r, 20.40m,0000000000Hz,0000782370c,0000001.698s, 024.4C,00002191
2016-09-08 02:11:48 r, 20.50m,0000000000Hz,0000856936c,0000001.860s, 024.4C,00002191
2016-09-08 02:21:48 r, 20.54m,0000000001Hz,0000885265c,0000001.921s, 024.4C,00002191
2016-09-08 02:31:48 r, 20.23m,0000000000Hz,0000672946c,0000001.460s, 024.8C,00002191
2016-09-08 02:41:49 r, 20.70m,0000000000Hz,0001026409c,0000002.227s, 024.8C,00002191
2016-09-08 02:51:48 r, 20.68m,0000000000Hz,0001013878c,0000002.200s, 024.8C,00002191
2016-09-08 03:01:48 r, 20.93m,0000000000Hz,0001262417c,0000002.740s, 024.8C,00002191
2016-09-08 03:11:49 r, 21.13m,0000000000Hz,0001522140c,0000003.303s, 024.8C,00002191
2016-09-08 03:21:49 r, 21.31m,0000000000Hz,0001790014c,0000003.885s, 024.4C,00002191
2016-09-08 03:31:48 r, 21.35m,0000000000Hz,0001857462c,0000004.031s, 024.4C,00002191
2016-09-08 03:41:49 r, 21.35m,0000000000Hz,0001854809c,0000004.025s, 024.1C,00002191
2016-09-08 03:51:49 r, 20.98m,0000000001Hz,0001319963c,0000002.865s, 024.1C,00002191
2016-09-08 04:01:48 r, 21.25m,0000000000Hz,0001694198c,0000003.677s, 024.1C,00002191
2016-09-08 04:11:48 r, 21.17m,0000000000Hz,0001584512c,0000003.439s, 024.1C,00002191
2016-09-08 04:21:48 r, 21.12m,0000000000Hz,0001504057c,0000003.264s, 023.8C,00002191
2016-09-08 04:31:48 r, 21.10m,0000000001Hz,0001472915c,0000003.196s, 023.8C,00002191
2016-09-08 04:41:49 r, 21.12m,0000000000Hz,0001514371c,0000003.286s, 023.5C,00002191
2016-09-08 04:51:48 r, 21.11m,0000000000Hz,0001491140c,0000003.236s, 023.5C,00002191
2016-09-08 05:01:49 r, 21.12m,0000000001Hz,0001513851c,0000003.285s, 023.2C,00002191
2016-09-08 05:11:48 r, 21.11m,0000000000Hz,0001485420c,0000003.224s, 023.2C,00002191
2016-09-08 05:21:49 r, 20.99m,0000000000Hz,0001336328c,0000002.900s, 023.2C,00002191
2016-09-08 05:31:48 r, 20.58m,0000000001Hz,0000921529c,0000002.000s, 022.8C,00002191
2016-09-08 05:41:49 r, 19.71m,0000000001Hz,0000416523c,0000000.904s, 022.8C,00002191
2016-09-08 05:51:49 r, 18.52m,0000000003Hz,0000139325c,0000000.302s, 022.5C,00002191
2016-09-08 06:01:48 r, 17.13m,0000000012Hz,0000039020c,0000000.085s, 022.5C,00002191
2016-09-08 06:11:48 r, 15.42m,0000000056Hz,0000008103c,0000000.018s, 022.2C,00002191
2016-09-08 06:21:49 r, 13.35m,0000000386Hz,0000000000c,0000000.000s, 022.2C,00002191
2016-09-08 06:31:48 r, 11.28m,0000002614Hz,0000000000c,0000000.000s, 022.2C,00002191
2016-09-08 06:41:48 r, 09.38m,0000015036Hz,0000000000c,0000000.000s, 021.9C,00002191
2016-09-08 06:51:48 r, 07.96m,0000055175Hz,0000000000c,0000000.000s, 021.9C,00002191
2016-09-08 07:01:49 r, 07.04m,0000129922Hz,0000000000c,0000000.000s, 021.9C,00002191
2016-09-08 07:11:49 r, 06.42m,0000227997Hz,0000000000c,0000000.000s, 021.9C,00002191
2016-09-08 07:21:49 r, 06.02m,0000332424Hz,0000000000c,0000000.000s, 022.2C,00002191
2016-09-08 07:31:48 r, 00.00m,0000433131Hz,0000000000c,0000000.000s, 022.5C,00002191
2016-09-08 07:41:49 r, 00.00m,0000528561Hz,0000000000c,0000000.000s, 023.5C,00002191
2016-09-08 07:51:50 r, 00.00m,0000596041Hz,0000000000c,0000000.000s, 024.4C,00002191
2016-09-08 08:01:48 r, 00.00m,0000595932Hz,0000000000c,0000000.000s, 025.1C,00002191
2016-09-08 08:11:49 r, 00.00m,0000595934Hz,0000000000c,0000000.000s, 026.1C,00002191
2016-09-08 08:21:49 r, 00.00m,0000595878Hz,0000000000c,0000000.000s, 026.4C,00002191
2016-09-08 08:31:49 r, 00.00m,0000595803Hz,0000000000c,0000000.000s, 027.0C,00002191
2016-09-08 08:41:49 r, 00.00m,0000595806Hz,0000000000c,0000000.000s, 028.3C,00002191
2016-09-08 08:51:49 r, 00.00m,0000595565Hz,0000000000c,0000000.000s, 029.0C,00002191
2016-09-08 09:01:48 r, 00.00m,0000595502Hz,0000000000c,0000000.000s, 029.6C,00002191
2016-09-08 09:11:48 r, 00.00m,0000595404Hz,0000000000c,0000000.000s, 030.6C,00002191
2016-09-08 09:21:49 r, 00.00m,0000595469Hz,0000000000c,0000000.000s, 031.2C,00002191
2016-09-08 09:31:49 r, 00.00m,0000595257Hz,0000000000c,0000000.000s, 032.2C,00002191
2016-09-08 09:41:49 r, 00.00m,0000595174Hz,0000000000c,0000000.000s, 033.1C,00002191
2016-09-08 09:51:49 r, 00.00m,0000595155Hz,0000000000c,0000000.000s, 033.8C,00002191
2016-09-08 10:01:49 r, 00.00m,0000595083Hz,0000000000c,0000000.000s, 034.4C,00002191
2016-09-08 10:11:48 r, 00.00m,0000594863Hz,0000000000c,0000000.000s, 034.8C,00002191
2016-09-08 10:21:49 r, 00.00m,0000594814Hz,0000000000c,0000000.000s, 035.7C,00002191
2016-09-08 10:31:48 r, 00.00m,0000594666Hz,0000000000c,0000000.000s, 036.4C,00002191
2016-09-08 10:41:49 r, 00.00m,0000594602Hz,0000000000c,0000000.000s, 037.0C,00002191
2016-09-08 10:51:48 r, 00.00m,0000594525Hz,0000000000c,0000000.000s, 037.3C,00002191
2016-09-08 11:01:49 r, 00.00m,0000594383Hz,0000000000c,0000000.000s, 038.3C,00002191
2016-09-08 11:11:48 r, 00.00m,0000594283Hz,0000000000c,0000000.000s, 039.3C,00002191
2016-09-08 11:21:48 r, 00.00m,0000594170Hz,0000000000c,0000000.000s, 039.6C,00002191
2016-09-08 11:31:48 r, 00.00m,0000594116Hz,0000000000c,0000000.000s, 039.9C,00002191
2016-09-08 11:41:48 r, 00.00m,0000594168Hz,0000000000c,0000000.000s, 040.2C,00002191
2016-09-08 11:51:49 r, 00.00m,0000594047Hz,0000000000c,0000000.000s, 040.9C,00002191
2016-09-08 12:01:48 r, 00.00m,0000593888Hz,0000000000c,0000000.000s, 041.9C,00002191
2016-09-08 12:11:49 r, 00.00m,0000593772Hz,0000000000c,0000000.000s, 042.2C,00002191
2016-09-08 12:21:49 r, 00.00m,0000593809Hz,0000000000c,0000000.000s, 042.8C,00002191
2016-09-08 12:31:48 r, 00.00m,0000593590Hz,0000000000c,0000000.000s, 043.5C,00002191
2016-09-08 12:41:48 r, 00.00m,0000593491Hz,0000000000c,0000000.000s, 043.8C,00002191
2016-09-08 12:51:49 r, 00.00m,0000593572Hz,0000000000c,0000000.000s, 044.1C,00002191
2016-09-08 13:01:49 r, 00.00m,0000593532Hz,0000000000c,0000000.000s, 044.4C,00002191
2016-09-08 13:11:49 r, 00.00m,0000593427Hz,0000000000c,0000000.000s, 044.4C,00002191
2016-09-08 13:21:49 r, 00.00m,0000593511Hz,0000000000c,0000000.000s, 044.8C,00002191
2016-09-08 13:31:49 r, 00.00m,0000593368Hz,0000000000c,0000000.000s, 044.8C,00002191
2016-09-08 13:41:49 r, 00.00m,0000593390Hz,0000000000c,0000000.000s, 044.8C,00002191
2016-09-08 13:51:49 r, 00.00m,0000593346Hz,0000000000c,0000000.000s, 045.1C,00002191
2016-09-08 14:01:49 r, 00.00m,0000593238Hz,0000000000c,0000000.000s, 045.4C,00002191
2016-09-08 14:11:49 r, 00.00m,0000593230Hz,0000000000c,0000000.000s, 046.0C,00002191
2016-09-08 14:21:49 r, 00.00m,0000593093Hz,0000000000c,0000000.000s, 046.4C,00002191
2016-09-08 14:31:49 r, 00.00m,0000593256Hz,0000000000c,0000000.000s, 046.4C,00002191
2016-09-08 14:41:49 r, 00.00m,0000593208Hz,0000000000c,0000000.000s, 045.7C,00002191
2016-09-08 14:51:49 r, 00.00m,0000593360Hz,0000000000c,0000000.000s, 045.4C,00002191
2016-09-08 15:01:49 r, 00.00m,0000593304Hz,0000000000c,0000000.000s, 045.4C,00002191
2016-09-08 15:11:49 r, 00.00m,0000593281Hz,0000000000c,0000000.000s, 045.1C,00002191
2016-09-08 15:21:49 r, 00.00m,0000593601Hz,0000000000c,0000000.000s, 043.1C,00002191
2016-09-08 15:31:49 r, 00.00m,0000594003Hz,0000000000c,0000000.000s, 040.9C,00002191
2016-09-08 15:41:49 r, 00.00m,0000594064Hz,0000000000c,0000000.000s, 039.9C,00002191
2016-09-08 15:51:49 r, 00.00m,0000594152Hz,0000000000c,0000000.000s, 039.3C,00002191
2016-09-08 16:01:49 r, 00.00m,0000594264Hz,0000000000c,0000000.000s, 038.6C,00002191
2016-09-08 16:11:49 r, 00.00m,0000594147Hz,0000000000c,0000000.000s, 039.9C,00002191
2016-09-08 16:21:49 r, 00.00m,0000594198Hz,0000000000c,0000000.000s, 039.6C,00002191
2016-09-08 16:31:49 r, 00.00m,0000594286Hz,0000000000c,0000000.000s, 038.3C,00002191
2016-09-08 16:41:49 r, 00.00m,0000594408Hz,0000000000c,0000000.000s, 037.7C,00002191
2016-09-08 16:51:49 r, 00.00m,0000594577Hz,0000000000c,0000000.000s, 037.0C,00002191
2016-09-08 17:01:49 r, 00.00m,0000594601Hz,0000000000c,0000000.000s, 036.4C,00002191
2016-09-08 17:11:49 r, 00.00m,0000594420Hz,0000000000c,0000000.000s, 037.0C,00002191
2016-09-08 17:21:49 r, 00.00m,0000594478Hz,0000000000c,0000000.000s, 037.0C,00002191
2016-09-08 17:31:49 r, 00.00m,0000594662Hz,0000000000c,0000000.000s, 035.7C,00002191
2016-09-08 17:41:49 r, 00.00m,0000594822Hz,0000000000c,0000000.000s, 035.1C,00002191
2016-09-08 17:51:49 r, 00.00m,0000594864Hz,0000000000c,0000000.000s, 034.4C,00002191
2016-09-08 18:01:49 r, 00.00m,0000594957Hz,0000000000c,0000000.000s, 033.5C,00002191
2016-09-08 18:11:49 r, 00.00m,0000595129Hz,0000000000c,0000000.000s, 032.5C,00002191
2016-09-08 18:21:49 r, 00.00m,0000595201Hz,0000000000c,0000000.000s, 031.5C,00002191
2016-09-08 18:31:49 r, 00.00m,0000595193Hz,0000000000c,0000000.000s, 031.5C,00002191
2016-09-08 18:41:49 r, 00.00m,0000595198Hz,0000000000c,0000000.000s, 030.6C,00002191
2016-09-08 18:51:49 r, 05.86m,0000383154Hz,0000000000c,0000000.000s, 029.9C,00002191
2016-09-08 19:01:49 r, 06.22m,0000276317Hz,0000000000c,0000000.000s, 029.3C,00002191
2016-09-08 19:11:49 r, 06.30m,0000255390Hz,0000000000c,0000000.000s, 029.0C,00002191
2016-09-08 19:21:49 r, 06.22m,0000275982Hz,0000000000c,0000000.000s, 028.6C,00002191
2016-09-08 19:31:49 r, 07.81m,0000063811Hz,0000000000c,0000000.000s, 028.3C,00002191
2016-09-08 19:41:49 r, 08.40m,0000037106Hz,0000000000c,0000000.000s, 027.7C,00002191
2016-09-08 19:51:49 r, 08.79m,0000025684Hz,0000000000c,0000000.000s, 027.7C,00002191
2016-09-08 20:01:49 r, 09.85m,0000009725Hz,0000000000c,0000000.000s, 027.7C,00002191
2016-09-08 20:11:49 r, 11.24m,0000002702Hz,0000000000c,0000000.000s, 027.7C,00002191
2016-09-08 20:21:49 r, 13.02m,0000000527Hz,0000000000c,0000000.000s, 027.7C,00002191
2016-09-08 20:31:49 r, 15.24m,0000000068Hz,0000006829c,0000000.015s, 028.0C,00002191
2016-09-08 20:41:49 r, 17.09m,0000000012Hz,0000037672c,0000000.082s, 028.0C,00002191
2016-09-08 20:51:49 r, 17.88m,0000000006Hz,0000078109c,0000000.170s, 028.0C,00002191
2016-09-08 21:01:49 r, 18.63m,0000000003Hz,0000155395c,0000000.337s, 028.0C,00002191
2016-09-08 21:11:49 r, 19.20m,0000000002Hz,0000261853c,0000000.568s, 028.0C,00002191
2016-09-08 21:21:49 r, 19.43m,0000000002Hz,0000327381c,0000000.710s, 027.7C,00002191
2016-09-08 21:31:49 r, 19.66m,0000000001Hz,0000399612c,0000000.867s, 027.7C,00002191
2016-09-08 21:41:49 r, 19.58m,0000000001Hz,0000369478c,0000000.802s, 027.7C,00002191
2016-09-08 21:51:49 r, 19.93m,0000000001Hz,0000512282c,0000001.112s, 027.3C,00002191
2016-09-08 22:01:49 r, 20.50m,0000000001Hz,0000854029c,0000001.853s, 027.3C,00002191
2016-09-08 22:11:49 r, 20.52m,0000000000Hz,0000874650c,0000001.898s, 026.7C,00002191
2016-09-08 22:21:49 r, 20.57m,0000000001Hz,0000911759c,0000001.979s, 026.4C,00002191
2016-09-08 22:31:49 r, 20.59m,0000000000Hz,0000933567c,0000002.026s, 026.1C,00002191
2016-09-08 22:41:49 r, 20.65m,0000000000Hz,0000983018c,0000002.133s, 025.7C,00002191
2016-09-08 22:51:49 r, 20.69m,0000000000Hz,0001016266c,0000002.205s, 025.4C,00002191
2016-09-08 23:01:49 r, 20.68m,0000000000Hz,0001012115c,0000002.196s, 025.1C,00002191
2016-09-08 23:11:49 r, 20.57m,0000000001Hz,0000913603c,0000001.983s, 025.1C,00002191
2016-09-08 23:21:49 r, 20.77m,0000000001Hz,0001101859c,0000002.391s, 024.8C,00002191
2016-09-08 23:31:49 r, 20.83m,0000000000Hz,0001170188c,0000002.539s, 024.4C,00002191
2016-09-08 23:41:49 r, 20.90m,0000000000Hz,0001232085c,0000002.674s, 024.4C,00002191
2016-09-08 23:51:49 r, 20.91m,0000000000Hz,0001237101c,0000002.685s, 024.1C,00002191
